Back to catalog

STARLINK-3838

AliveCommunicationsVLEO
NORAD 52352·PAYLOAD·🇺🇸 United States

Launched Apr 29, 2022 from Cape Canaveral Space Force Station

Loading…

Next Passes (next 24 hours)

TLE

FreshSource: CelesTrak SupGP

Epoch: Sep 14, 2026, 21:38 UTC

1 52352C 22045X   26257.90187500  .00053210  00000+0  15727-2 0  2573
2 52352  53.1597  61.9649 0001203  80.2125 168.3527 15.34351750    15

Track STARLINK-3838 in real time with AllMySat

Download on the App Store